Denver Centennial, CO

9:43 PM MDT on September 25, 2017 (GMT -0600)
Centennial

Weather History for KAPA - April, 2014

Change the Weather History Date:

Tuesday, April 1, 2014

  Actual Average Record
Temperature  
Mean Temperature 45 °F -  
Max Temperature 58 °F 54 °F 81 °F (2012)
Min Temperature 31 °F 29 °F 18 °F (2008)
Degree Days  
Heating Degree Days 20    
Month to date heating degree days 20  
Moisture  
Dew Point 19 °F    
Average Humidity 41    
Maximum Humidity 64    
Minimum Humidity 17    
Precipitation  
Precipitation 0.00 in - - ()
Month to date precipitation 0.00  
Year to date precipitation 1.59  
Sea Level Pressure  
Sea Level Pressure 29.73 in    
Wind  
Wind Speed 15 mph (SSE)    
Max Wind Speed 20 mph    
Max Gust Speed 40 mph    
Visibility 10 miles    
Events      
Averages and records for this station are not official NWS values.
T = Trace of Precipitation, MM = Missing Value Source: NWS Daily Summary

Daily Weather History Graph

Daily Weather History Graph

Search for Another Location

Airport or City:

Trip Planner

Search our weather history database for the weather conditions in past years. The results will help you decide how hot, cold, wet, or windy it might be!

Date:

Astronomy

Apr. 01, 2014 Rise Set
Actual Time 6:43 AM MDT 7:23 PM MDT
Civil Twilight 6:16 AM MDT 7:50 PM MDT
Nautical Twilight 5:44 AM MDT 8:22 PM MDT
Astronomical Twilight 5:11 AM MDT 8:55 PM MDT
Moon 7:48 AM MDT (4/1) 9:48 PM MDT (4/1)
Length of Visible Light 13h 34m
Length of Day
12h 39m
Waxing Crescent, 5% of the Moon is Illuminated
Apr 1
Waxing Crescent
Apr 7
First Quarter
Apr 15
Full
Apr 22
Last Quarter
Apr 29
New

Hourly Weather History & Observations

Time (MDT) Temp. Windchill Dew Point Humidity Pressure Visibility Wind Dir Wind Speed Gust Speed Precip Events Conditions
12:53 AM 35.1 °F 26.4 °F 19.9 °F 54% 29.95 in 10.0 mi SE 12.7 mph - N/A   Mostly Cloudy
1:53 AM 33.1 °F 21.5 °F 19.0 °F 56% 29.91 in 10.0 mi SSE 19.6 mph 27.6 mph N/A   Clear
2:53 AM 30.9 °F 18.7 °F 18.0 °F 59% 29.89 in 10.0 mi SSE 19.6 mph - N/A   Clear
3:53 AM 30.9 °F 21.2 °F 18.0 °F 59% 29.87 in 10.0 mi SSE 12.7 mph - N/A   Clear
4:53 AM 30.9 °F 18.7 °F 18.0 °F 59% 29.84 in 10.0 mi SSE 19.6 mph 26.5 mph N/A   Partly Cloudy
5:53 AM 32.0 °F 20.1 °F 19.0 °F 59% 29.82 in 10.0 mi South 19.6 mph - N/A   Partly Cloudy
6:53 AM 30.9 °F 17.5 °F 19.0 °F 61% 29.81 in 10.0 mi South 24.2 mph 32.2 mph N/A   Partly Cloudy
7:53 AM 33.1 °F 20.3 °F 19.9 °F 59% 29.80 in 10.0 mi South 24.2 mph 32.2 mph N/A   Partly Cloudy
8:53 AM 39.0 °F 28.8 °F 19.9 °F 46% 29.76 in 10.0 mi South 21.9 mph - N/A   Partly Cloudy
9:53 AM 45.0 °F 40.6 °F 19.9 °F 37% 29.74 in 10.0 mi SE 8.1 mph - N/A   Partly Cloudy
10:53 AM 52.0 °F - 18.0 °F 26% 29.69 in 10.0 mi SW 23.0 mph - N/A   Partly Cloudy
11:53 AM 55.0 °F - 19.0 °F 24% 29.67 in 10.0 mi SW 18.4 mph 24.2 mph N/A   Mostly Cloudy
12:53 PM 55.0 °F - 17.1 °F 23% 29.65 in 10.0 mi West 12.7 mph - N/A   Overcast
1:39 PM 53.1 °F - 21.0 °F 29% 29.68 in 10.0 mi North 16.1 mph 28.8 mph N/A   Overcast
1:53 PM 54.0 °F - 21.0 °F 28% 29.65 in 10.0 mi North 12.7 mph - N/A   Overcast
2:53 PM 55.0 °F - 21.0 °F 27% 29.64 in 10.0 mi Variable 5.8 mph - N/A   Overcast
3:53 PM 57.9 °F - 14.0 °F 18% 29.62 in 10.0 mi West 15.0 mph 27.6 mph N/A   Overcast
4:53 PM 57.0 °F - 12.9 °F 18% 29.62 in 10.0 mi WNW 12.7 mph 17.3 mph N/A   Overcast
5:53 PM 55.9 °F - 14.0 °F 19% 29.63 in 10.0 mi WNW 8.1 mph - N/A   Overcast
6:53 PM 53.1 °F - 18.0 °F 25% 29.67 in 10.0 mi NE 10.4 mph - N/A   Overcast
7:53 PM 50.0 °F - 19.0 °F 29% 29.68 in 10.0 mi East 8.1 mph - N/A   Mostly Cloudy
8:53 PM 46.9 °F - 19.9 °F 34% 29.69 in 10.0 mi East 8.1 mph - N/A   Mostly Cloudy
9:53 PM 45.0 °F 38.9 °F 23.0 °F 42% 29.69 in 10.0 mi NNW 12.7 mph - N/A   Mostly Cloudy
10:53 PM 41.0 °F 34.7 °F 27.0 °F 57% 29.68 in 10.0 mi North 10.4 mph - N/A   Mostly Cloudy
11:53 PM 39.9 °F 35.1 °F 28.0 °F 63% 29.67 in 10.0 mi NNE 6.9 mph - N/A   Partly Cloudy